When you browse on this site, cookies collect data to enhance your experience and personalize the content and advertising you see.
Visit our Privacy Policy to learn more. By continuing to use the site, you agree to this use of cookies and data.
  • In Denmark
  • List of Countries
  • For 7 days
  • Water Temperature
  • Weather Map
  • Weather Widgets
  • user-avatar
    Login

    Hourly Weather Annaba

    Today, 8 April, Wednesday

    Time Temperature Precipitation Wind Pressure Humidity
    00:00 +12°C° 0 mm 2 mps 767 mmHg 86%
    01:00 +12°C° 0 mm 1 mps 767 mmHg 87%
    02:00 +12°C° 0 mm 1 mps 766 mmHg 86%
    03:00 +11°C° 0 mm 1 mps 766 mmHg 86%
    04:00 +11°C° 0 mm 1 mps 766 mmHg 85%
    05:00 +12°C° 0 mm 1 mps 766 mmHg 84%
    06:00 +12°C° 0 mm 1 mps 766 mmHg 84%
    07:00 +13°C° 0 mm 2 mps 766 mmHg 83%
    08:00 +14°C° 0 mm 2 mps 766 mmHg 76%
    09:00 +16°C° 0 mm 2 mps 766 mmHg 70%
    10:00 +18°C° 0 mm 3 mps 766 mmHg 63%
    11:00 +18°C° 0 mm 3 mps 766 mmHg 61%
    12:00 +19°C° 0 mm 3 mps 765 mmHg 58%
    13:00 +20°C° 0 mm 4 mps 765 mmHg 56%
    14:00 +19°C° 0 mm 4 mps 765 mmHg 57%
    15:00 +19°C° 0 mm 4 mps 764 mmHg 58%
    16:00 +19°C° 0 mm 5 mps 764 mmHg 59%
    17:00 +17°C° 0 mm 4 mps 764 mmHg 67%
    18:00 +15°C° 0 mm 4 mps 764 mmHg 74%
    19:00 +13°C° 0 mm 3 mps 764 mmHg 82%
    20:00 +13°C° 0 mm 3 mps 765 mmHg 83%
    21:00 +13°C° 0 mm 2 mps 765 mmHg 85%
    22:00 +13°C° 0 mm 2 mps 766 mmHg 87%
    23:00 +12°C° 0 mm 2 mps 765 mmHg 87%

    Tomorrow, 9 April, Thursday

    Time Temperature Precipitation Wind Pressure Humidity
    00:00 +12°C° 0 mm 2 mps 765 mmHg 88%
    01:00 +12°C° 0 mm 1 mps 765 mmHg 88%
    02:00 +12°C° 0 mm 1 mps 765 mmHg 88%
    03:00 +12°C° 0 mm 1 mps 764 mmHg 88%
    04:00 +12°C° 0 mm 1 mps 764 mmHg 89%
    05:00 +12°C° 0 mm 1 mps 764 mmHg 88%
    06:00 +12°C° 0 mm 1 mps 764 mmHg 87%
    07:00 +13°C° 0 mm 1 mps 764 mmHg 86%
    08:00 +15°C° 0 mm 1 mps 764 mmHg 80%
    09:00 +18°C° 0 mm 1 mps 764 mmHg 74%
    10:00 +19°C° 0 mm 1 mps 764 mmHg 67%
    11:00 +19°C° 0 mm 2 mps 764 mmHg 65%
    12:00 +20°C° 0 mm 3 mps 764 mmHg 63%
    13:00 +20°C° 0 mm 3 mps 764 mmHg 62%
    14:00 +20°C° 0 mm 4 mps 763 mmHg 64%
    15:00 +20°C° 0 mm 4 mps 763 mmHg 67%
    16:00 +19°C° 0 mm 5 mps 763 mmHg 69%
    17:00 +18°C° 0 mm 4 mps 763 mmHg 76%
    18:00 +15°C° 0 mm 4 mps 763 mmHg 82%
    19:00 +14°C° 0 mm 3 mps 763 mmHg 88%
    20:00 +14°C° 0 mm 3 mps 763 mmHg 89%
    21:00 +13°C° 0 mm 3 mps 764 mmHg 90%
    22:00 +14°C° 0 mm 2 mps 764 mmHg 91%
    23:00 +14°C° 0 mm 2 mps 764 mmHg 92%

    Day after tomorrow, 10 April, Friday

    Time Temperature Precipitation Wind Pressure Humidity
    00:00 +13°C° 0 mm 2 mps 764 mmHg 92%
    01:00 +13°C° 0 mm 2 mps 763 mmHg 92%
    02:00 +13°C° 0 mm 1 mps 763 mmHg 92%
    03:00 +13°C° 0 mm 1 mps 763 mmHg 92%
    04:00 +13°C° 0 mm 1 mps 763 mmHg 91%
    05:00 +13°C° 0 mm 1 mps 763 mmHg 91%
    06:00 +13°C° 0 mm 1 mps 763 mmHg 90%
    07:00 +14°C° 0 mm 1 mps 763 mmHg 89%
    08:00 +16°C° 0 mm 1 mps 763 mmHg 83%
    09:00 +17°C° 0 mm 2 mps 763 mmHg 77%
    10:00 +19°C° 0 mm 2 mps 763 mmHg 71%
    11:00 +19°C° 0 mm 2 mps 763 mmHg 69%
    12:00 +20°C° 0 mm 3 mps 763 mmHg 68%
    13:00 +21°C° 0 mm 4 mps 762 mmHg 66%
    14:00 +20°C° 0.1 mm 4 mps 762 mmHg 67%
    15:00 +20°C° 0.1 mm 4 mps 761 mmHg 69%
    16:00 +20°C° 0.1 mm 4 mps 761 mmHg 70%
    17:00 +18°C° 0 mm 4 mps 761 mmHg 76%
    18:00 +17°C° 0 mm 3 mps 761 mmHg 81%
    19:00 +16°C° 0 mm 3 mps 761 mmHg 87%
    20:00 +16°C° 0 mm 3 mps 762 mmHg 88%
    21:00 +15°C° 0 mm 2 mps 762 mmHg 89%
    22:00 +15°C° 0 mm 2 mps 763 mmHg 90%
    23:00 +15°C° 0 mm 2 mps 763 mmHg 90%

    11 April, Saturday

    Time Temperature Precipitation Wind Pressure Humidity
    00:00 +15°C° 0 mm 2 mps 762 mmHg 90%
    01:00 +14°C° 0 mm 2 mps 762 mmHg 90%
    02:00 +14°C° 0 mm 2 mps 762 mmHg 91%
    03:00 +14°C° 0 mm 2 mps 762 mmHg 91%
    04:00 +14°C° 0 mm 2 mps 762 mmHg 92%
    05:00 +14°C° 0 mm 2 mps 762 mmHg 91%
    06:00 +15°C° 0 mm 2 mps 762 mmHg 91%
    07:00 +15°C° 0 mm 2 mps 763 mmHg 90%
    08:00 +16°C° 0 mm 2 mps 763 mmHg 83%
    09:00 +18°C° 0 mm 2 mps 763 mmHg 76%
    10:00 +19°C° 0 mm 2 mps 763 mmHg 70%
    11:00 +20°C° 0.2 mm 2 mps 763 mmHg 69%
    12:00 +20°C° 0.2 mm 3 mps 763 mmHg 68%
    13:00 +21°C° 0.2 mm 3 mps 763 mmHg 67%
    14:00 +20°C° 0.2 mm 3 mps 762 mmHg 69%
    15:00 +20°C° 0.2 mm 3 mps 762 mmHg 70%
    16:00 +20°C° 0.2 mm 2 mps 762 mmHg 72%
    17:00 +18°C° 0 mm 2 mps 762 mmHg 78%
    18:00 +18°C° 0 mm 1 mps 762 mmHg 83%
    19:00 +15°C° 0 mm 1 mps 762 mmHg 89%
    20:00 +15°C° 0 mm 1 mps 763 mmHg 90%
    21:00 +14°C° 0 mm 2 mps 763 mmHg 92%
    22:00 +14°C° 0 mm 2 mps 764 mmHg 93%
    23:00 +13°C° 0 mm 2 mps 763 mmHg 92%

    12 April, Sunday

    Time Temperature Precipitation Wind Pressure Humidity
    00:00 +13°C° 0 mm 2 mps 763 mmHg 92%
    01:00 +13°C° 0 mm 2 mps 763 mmHg 92%
    02:00 +13°C° 0 mm 1 mps 763 mmHg 92%
    03:00 +12°C° 0 mm 1 mps 763 mmHg 91%
    04:00 +12°C° 0 mm 1 mps 762 mmHg 91%
    05:00 +13°C° 0 mm 1 mps 762 mmHg 90%
    06:00 +13°C° 0 mm 1 mps 763 mmHg 89%
    07:00 +14°C° 0 mm 1 mps 763 mmHg 88%
    08:00 +16°C° 0 mm 1 mps 763 mmHg 81%
    09:00 +18°C° 0 mm 1 mps 763 mmHg 74%
    10:00 +20°C° 0 mm 1 mps 762 mmHg 67%
    11:00 +20°C° 0 mm 2 mps 762 mmHg 66%
    12:00 +21°C° 0 mm 3 mps 762 mmHg 64%
    13:00 +21°C° 0 mm 4 mps 761 mmHg 63%
    14:00 +21°C° 0 mm 4 mps 761 mmHg 65%
    15:00 +21°C° 0 mm 4 mps 760 mmHg 68%
    16:00 +20°C° 0 mm 4 mps 760 mmHg 70%
    17:00 +19°C° 0 mm 4 mps 759 mmHg 74%
    18:00 +18°C° 0 mm 3 mps 759 mmHg 79%
    19:00 +17°C° 0 mm 3 mps 759 mmHg 83%
    20:00 +16°C° 0 mm 2 mps 759 mmHg 84%
    21:00 +16°C° 0 mm 2 mps 759 mmHg 84%
    22:00 +16°C° 0 mm 2 mps 759 mmHg 84%
    23:00 +16°C° 0 mm 2 mps 759 mmHg 83%

    13 April, Monday

    Time Temperature Precipitation Wind Pressure Humidity
    00:00 +16°C° 0 mm 2 mps 758 mmHg 82%
    01:00 +16°C° 0 mm 2 mps 758 mmHg 82%
    02:00 +16°C° 0.1 mm 2 mps 758 mmHg 81%
    03:00 +16°C° 0.1 mm 3 mps 757 mmHg 80%
    04:00 +16°C° 0.1 mm 3 mps 756 mmHg 80%
    05:00 +16°C° 0.3 mm 3 mps 756 mmHg 80%
    06:00 +17°C° 0.3 mm 3 mps 756 mmHg 81%
    07:00 +17°C° 0.3 mm 3 mps 756 mmHg 82%
    08:00 +19°C° 0 mm 2 mps 756 mmHg 75%
    09:00 +20°C° 0 mm 2 mps 756 mmHg 69%
    10:00 +23°C° 0 mm 2 mps 756 mmHg 62%
    11:00 +24°C° 0 mm 2 mps 756 mmHg 59%
    12:00 +26°C° 0 mm 2 mps 756 mmHg 55%
    13:00 +27°C° 0 mm 2 mps 756 mmHg 52%
    14:00 +26°C° 0 mm 2 mps 756 mmHg 54%
    15:00 +26°C° 0 mm 3 mps 755 mmHg 56%
    16:00 +26°C° 0 mm 4 mps 755 mmHg 58%
    17:00 +25°C° 0 mm 3 mps 755 mmHg 62%
    18:00 +24°C° 0 mm 3 mps 755 mmHg 66%
    19:00 +21°C° 0 mm 3 mps 755 mmHg 70%
    20:00 +21°C° 0 mm 3 mps 755 mmHg 69%
    21:00 +20°C° 0 mm 3 mps 755 mmHg 68%
    22:00 +20°C° 0 mm 3 mps 756 mmHg 66%
    23:00 +20°C° 0 mm 3 mps 755 mmHg 63%
    Show more